COSMOS 1375 DEB, 16384

Orbit data source: Space-Track

COSMOS 1375 DEB, 16384 is space debris in LEO originally from a launch on Sun, 06 Jun 1982 UTC launched from the Plesetsk Missile And Space Complex (PKMTR). Debris objects in space refer to the collection of defunct objects orbiting the Earth. Examples of debris include non-operational satellites, rocket bodies, and fragments generated from explosions, collisions, or faulty payload assembly.

Loading next visibility...
Identifier
16384, 1982-055Y
Orbit
LEO
Country
Flag of CISCIS
Related business
Manufacturer
Unknown
Mission
Spacecraft
Bus & Motor
Unknown
Mass
Unknown
Launch date (UTC)
1982-06-06 (44 years ago)
Launch vehicle
Unknown
Launch site
Plesetsk Missile And Space Complex (PKMTR)
Object type
Payload
Rocket body
Debris
Shape & HBR
Unknown shape, 0.1 m
Radar Cross Section
Medium (>0.1 m² and <1 m²)

Expand to show TLE details & history
Last TLE update: 2 days ago

TLE from 2 days ago
0 COSMOS 1375 DEB
1 16384U 82055Y   26171.22487912  .00000089  00000-0  19034-3 0  9991
2 16384  65.8331  88.0780 0032961  43.7235 109.4458 13.70353216 31259
Epoch: 2026-06-20T05:23Z
TLE epoch observation values (Epoch: 2026-06-20T05:23:49.555Z)
Latitude
24.03931°
Longitude
-92.80639°
Altitude
1,008.456 km
Speed
7.346 km/s
True Right ascension
17h 06m 22s
True Declination
23° 54' 57"
Sunlit
Object was in full shadow at epoch
Visualization orbit readout
Latitude
Unknown
Longitude
Unknown
Altitude
Unknown
Speed
Unknown
Apparent Right ascension
Unknown
Apparent Declination
Unknown
Sunlit
N/A
Visualization observer readout
Local Sidereal Time
00:39:49
Azimuth
Unknown
Elevation
Unknown
Doppler factor
Unknown
Orbital elements
Apogee altitude
1,021.132 km
Perigee altitude
972.515 km
Semi-major axis
7,374.961 km
Eccentricity
0.0033
Inclination
65.8331°
RAAN
88.078°
Arg. of periapsis
43.7235°
True anomaly
109.80147°
Mean anomaly
109.4458°
Eccentric anomaly
109.62368°
Mean motion
3.42692 °/min
Orbital period
105.05 mins
BSTAR
0.00019034
Loading maneuver chart data...
Computing Atmospheric mass density...
Loading historical data...
Loading historical data...
Loading historical data...
Loading historical data...
Loading historical data...
Loading historical data...
Loading historical data...

Documentation

Showing up to 5 results
|